Regional Weather Roundup
Issued by NWS Newport/Morehead, NC

Current Version | Previous Version | Graphics & Text | Print | Product List | Glossary Off
Versions: 1 2 3 4 5 6 7 8 9 10 11 12 13 14 15 16 17 18 19 20 21 22 23 24 25 26 27 28 29 30 31 32 33 34 35 36 37 38 39 40 41 42 43 44 45 46 47 48 49 50

000
ASUS42 KMHX 161026
RWRMHX
WEATHER ROUNDUP FOR EASTERN NORTH CAROLINA
NATIONAL WEATHER SERVICE NEWPORT/MOREHEAD CITY NC
600 AM EDT MON OCT 16 2017

NOTE: "FAIR" INDICATES FEW OR NO CLOUDS BELOW 12,000 FEET
WITH NO SIGNIFICANT WEATHER AND/OR OBSTRUCTIONS TO VISIBILITY

NCZ015>017-031-032-045>047-102-103-161100-
NORTH COAST

CITY           SKY/WX    TMP DP  RH WIND       PRES   REMARKS
EDENTON        CLEAR     69  67  92 CALM      29.97S
ELIZABETH CITY CLEAR     68  67  96 SW7       29.96R
KITTY HAWK     CLOUDY   N/A N/A N/A SW3       29.96S
MANTEO         CLOUDY   N/A N/A N/A W12       29.98S

$$

NCZ045>047-081-094-103-104-161100-
CENTRAL COAST

CITY           SKY/WX    TMP DP  RH WIND       PRES   REMARKS
FRISCO         CLEAR     77  75  93 SW10      29.97S

$$

NCZ095-097-098-100-101-161100-
SOUTHERN COAST

CITY           SKY/WX    TMP DP  RH WIND       PRES   REMARKS
BEAUFORT       MOCLDY    75  74  96 NW3       29.98R
CEDAR ISLAND   NOT AVBL
JACKSONVILLE   FOG       68  68 100 SW3       29.98S VSB 1/2
PINEY ISLAND     N/A    N/A N/A N/A W7        29.97S
WILMINGTON     CLOUDY    70  69  97 CALM      29.99S


$$

NCZ011>013-027>030-043-044-078>080-089-090>093-098-161100-
COASTAL PLAIN

CITY           SKY/WX    TMP DP  RH WIND       PRES   REMARKS
AHOSKIE        PTCLDY    67  66  99 CALM      29.95S
CLINTON        CLOUDY    65  65 100 CALM      29.99S VSB 1
ELIZABETHTOWN  NOT AVBL
GOLDSBORO      CLEAR     66  63  88 SW3       29.97S
GREENVILLE     PTCLDY    66  64  94 SW3       29.99S
HAVELOCK       CLOUDY    70  70 100 W5        29.99S
KENANSVILLE    FOG       63  63 100 CALM      29.98S VSB 1
KINSTON        CLEAR     64  64 100 S3        29.98F FOG
NEW BERN       CLOUDY    68  68 100 W5        29.99S FOG
RICHLANDS      CLOUDY    68  68 100 S5        29.99S FOG
ROCKY MOUNT    MOCLDY    67  67 100 S7        29.97R
WASHINGTON     CLEAR     66  65  97 CALM      29.98S
WHITEVILLE     CLEAR     67  66  97 W3        29.99S

$$

AMZ130-135-150-152-154-156-158-170-250-252-270-ANZ085-086-088-633-658-670-161100-
MARINE OBSERVATIONS

STATION/POSITION TIME  TEMP    WIND        PRES    WAVE   SWELL
                       AIR SEA DIR/SP/G            HT/PER HT/PER
                 (UTC) (F)     (DEG/KT/KT) (MB)    (FT/S) (FT/S)
CHESAPEAKE LIGHT NOT AVBL
64 E VA BEACH    0950   72 71  230/ 14/ 16 1014.5    4/ 8   2/ 8
DUCK             1000   72 72  220/ 11/ 14 1014.1
2 E DUCK         0930      72                N/A     2/ 9
OREGON INLET     1000   73 75  230/  9/ 11 1014.8
13E OREGON INLT  0948      73                N/A     2/ 9   2/ 9
HATTERAS CG      1000   76 78  240/  8/ 13 1015.1
DIAMOND BUOY     0950   76 77  250/ 10/ 12 1014.8    3/ 8   3/ 8
CAPE LOOKOUT     1000   76     230/  4/  5 1014.9
BEAUFORT LAB     1000   76 72  270/  2/  5 1014.6
30 SE NEW RVR IN 0908   77     210/  6/  8 1014.5
30 SE NEW RVR IN NOT AVBL
27 SE WRIGHTSVLE 0908   78 78  200/ 10/ 12 1014.5
5 SE WRIGHTSVLE  0908   76 77  270/ 10/ 14 1014.9
225 S CAPE HAT   0950   78 80  170/  4/  6 1015.6    4/ 9   3/ 9
41 SE CHARLESTON 1010   80 81  250/ 10/ 14 1014.7

$$




USA.gov is the U.S. government's official web portal to all federal, state and local government web resources and services.